Location: Unspecified
(35.6961°N, 0.0000°E)
Time: 14:14:23
(UTC+00:00)

S-56A Canister/Altair - Pass Details

Date: 30 May 2019
Orbit: 633 x 2499 km, 38.9° (Epoch: 25 June)

Event Time Altitude Azimuth Distance (km) Brightness Sun altitude
Rises 06:43:23 0° 280° (W) 4,513 10.9 21.5°
Reaches altitude 10° 06:46:49 10° 267° (W) 3,817 10.6 22.2°
Maximum altitude 06:54:32 24° 218° (SW) 3,361 10.5 23.7°
Drops below altitude 10° 07:04:15 10° 172° (S) 4,886 11.7 25.6°
Sets 07:09:31 0° 160° (SSE) 6,064 12.2 26.7°
